Location: Asbacherhof
(48.8543°N, 10.7903°E)
Time: 23:26:39
(UTC+00:00)

Helios 1A - Pass Details

Date: 26 May 2022
Orbit: 581 x 601 km, 98.2° (Epoch: 23 April)

Event Time Altitude Azimuth Distance (km) Brightness Sun altitude
Exits shadow 01:16:52 - 153° (SSE) 2,068 5.4 -14.9°
Reaches altitude 10° 01:17:12 10° 152° (SSE) 1,930 5.3 -14.8°
Maximum altitude 01:21:21 63° 72° (ENE) 674 3.4 -14.5°
Drops below altitude 10° 01:25:32 10° 352° (N) 1,954 6.4 -14.1°
Sets 01:27:44 0° 349° (N) 2,863 7.2 -13.9°
